• In Latvia
  • List of Countries
  • For 7 days
  • Water Temperature
  • Satellite Maps
  • Weather Map
  • Weather Widgets
  • user-avatar
    Login

    Hourly Weather Lankaran

    Today, 24 February, Saturday

    Time Temperature Precipitation Wind Pressure Humidity
    00:00 -1°C° 0 mm 2 mps 628 mmHg 82%
    01:00 -1°C° 0 mm 2 mps 628 mmHg 81%
    02:00 -1°C° 0 mm 2 mps 628 mmHg 80%
    03:00 -1°C° 0 mm 2 mps 627 mmHg 78%
    04:00 -1°C° 0 mm 2 mps 627 mmHg 78%
    05:00 +1°C° 0 mm 1 mps 627 mmHg 78%
    06:00 +1°C° 0 mm 1 mps 627 mmHg 77%
    07:00 +2°C° 0 mm 1 mps 628 mmHg 77%
    08:00 +3°C° 0 mm 1 mps 628 mmHg 77%
    09:00 +4°C° 0 mm 1 mps 628 mmHg 77%
    10:00 +4°C° 0.1 mm 1 mps 628 mmHg 75%
    11:00 +4°C° 0.1 mm 2 mps 628 mmHg 74%
    12:00 +4°C° 0.1 mm 2 mps 628 mmHg 72%
    13:00 +5°C° 0.1 mm 2 mps 628 mmHg 71%
    14:00 +5°C° 0.1 mm 2 mps 628 mmHg 70%
    15:00 +5°C° 0.1 mm 2 mps 628 mmHg 70%
    16:00 +4°C° 0 mm 2 mps 628 mmHg 73%
    17:00 +3°C° 0 mm 2 mps 627 mmHg 75%
    18:00 +3°C° 0 mm 1 mps 627 mmHg 78%
    19:00 +2°C° 0 mm 2 mps 627 mmHg 76%
    20:00 +2°C° 0 mm 2 mps 627 mmHg 74%
    21:00 +1°C° 0 mm 2 mps 628 mmHg 73%
    22:00 +1°C° 0 mm 2 mps 627 mmHg 71%
    23:00 +1°C° 0 mm 2 mps 627 mmHg 69%

    Tomorrow, 25 February, Sunday

    Time Temperature Precipitation Wind Pressure Humidity
    00:00 +1°C° 0 mm 2 mps 627 mmHg 67%
    01:00 +1°C° 0 mm 2 mps 627 mmHg 67%
    02:00 +1°C° 0 mm 2 mps 627 mmHg 67%
    03:00 +1°C° 0 mm 2 mps 627 mmHg 68%
    04:00 +1°C° 0 mm 2 mps 627 mmHg 69%
    05:00 -1°C° 0 mm 2 mps 627 mmHg 70%
    06:00 -1°C° 0 mm 2 mps 627 mmHg 71%
    07:00 +2°C° 0 mm 2 mps 627 mmHg 69%
    08:00 +3°C° 0 mm 2 mps 628 mmHg 66%
    09:00 +4°C° 0 mm 2 mps 628 mmHg 64%
    10:00 +4°C° 0 mm 3 mps 628 mmHg 61%
    11:00 +5°C° 0 mm 3 mps 628 mmHg 59%
    12:00 +7°C° 0 mm 3 mps 628 mmHg 56%
    13:00 +7°C° 0 mm 3 mps 628 mmHg 55%
    14:00 +7°C° 0 mm 3 mps 627 mmHg 55%
    15:00 +6°C° 0 mm 4 mps 627 mmHg 54%
    16:00 +5°C° 0 mm 3 mps 627 mmHg 56%
    17:00 +4°C° 0 mm 3 mps 626 mmHg 58%
    18:00 +3°C° 0 mm 3 mps 626 mmHg 61%
    19:00 +2°C° 0 mm 3 mps 626 mmHg 60%
    20:00 +2°C° 0 mm 3 mps 626 mmHg 60%
    21:00 +2°C° 0 mm 3 mps 626 mmHg 60%
    22:00 +2°C° 0 mm 3 mps 626 mmHg 60%
    23:00 +1°C° 0 mm 3 mps 626 mmHg 61%

    Day after tomorrow, 26 February, Monday

    Time Temperature Precipitation Wind Pressure Humidity
    00:00 +1°C° 0 mm 3 mps 626 mmHg 62%
    01:00 +1°C° 0 mm 3 mps 626 mmHg 63%
    02:00 +1°C° 0 mm 3 mps 626 mmHg 64%
    03:00 +1°C° 0 mm 3 mps 625 mmHg 65%
    04:00 0°C° 0 mm 3 mps 625 mmHg 67%
    05:00 0°C° 0 mm 3 mps 626 mmHg 68%
    06:00 0°C° 0 mm 3 mps 626 mmHg 70%
    07:00 +2°C° 0 mm 3 mps 626 mmHg 65%
    08:00 +3°C° 0 mm 3 mps 627 mmHg 61%
    09:00 +5°C° 0 mm 3 mps 627 mmHg 57%
    10:00 +5°C° 0 mm 4 mps 627 mmHg 54%
    11:00 +6°C° 0 mm 4 mps 628 mmHg 51%
    12:00 +7°C° 0 mm 4 mps 628 mmHg 49%
    13:00 +7°C° 0 mm 4 mps 628 mmHg 49%
    14:00 +7°C° 0 mm 4 mps 627 mmHg 50%
    15:00 +8°C° 0 mm 3 mps 627 mmHg 50%
    16:00 +7°C° 0.1 mm 3 mps 628 mmHg 55%
    17:00 +5°C° 0.1 mm 3 mps 628 mmHg 59%
    18:00 +6°C° 0.1 mm 2 mps 628 mmHg 64%
    19:00 +5°C° 0.1 mm 2 mps 628 mmHg 69%
    20:00 +3°C° 0.1 mm 3 mps 628 mmHg 74%
    21:00 +3°C° 0.1 mm 3 mps 629 mmHg 79%
    22:00 +2°C° 0.2 mm 3 mps 629 mmHg 81%
    23:00 +2°C° 0.2 mm 3 mps 629 mmHg 83%

    27 February, Tuesday

    Time Temperature Precipitation Wind Pressure Humidity
    00:00 +1°C° 0.2 mm 3 mps 629 mmHg 85%
    01:00 +1°C° 0.5 mm 3 mps 629 mmHg 86%
    02:00 +1°C° 0.5 mm 3 mps 628 mmHg 88%
    03:00 0°C° 0.5 mm 3 mps 628 mmHg 89%
    04:00 0°C° 0.5 mm 3 mps 629 mmHg 90%
    05:00 0°C° 0.5 mm 3 mps 629 mmHg 90%
    06:00 0°C° 0.5 mm 3 mps 629 mmHg 91%
    07:00 0°C° 0.8 mm 3 mps 629 mmHg 90%
    08:00 0°C° 0.8 mm 3 mps 630 mmHg 90%
    09:00 0°C° 0.8 mm 3 mps 630 mmHg 89%
    10:00 0°C° 0.3 mm 3 mps 630 mmHg 87%
    11:00 +1°C° 0.3 mm 3 mps 630 mmHg 85%
    12:00 +1°C° 0.3 mm 3 mps 630 mmHg 83%
    13:00 +2°C° 0.3 mm 3 mps 630 mmHg 83%
    14:00 +2°C° 0.3 mm 3 mps 630 mmHg 82%
    15:00 +2°C° 0.3 mm 3 mps 630 mmHg 82%
    16:00 +2°C° 0.2 mm 2 mps 630 mmHg 84%
    17:00 +2°C° 0.2 mm 2 mps 630 mmHg 86%
    18:00 +2°C° 0.2 mm 2 mps 630 mmHg 88%
    19:00 +3°C° 0 mm 1 mps 630 mmHg 89%
    20:00 +2°C° 0 mm 1 mps 631 mmHg 89%
    21:00 +2°C° 0 mm 1 mps 631 mmHg 90%
    22:00 +2°C° 0 mm 1 mps 631 mmHg 90%
    23:00 +2°C° 0 mm 1 mps 631 mmHg 89%

    28 February, Wednesday

    Time Temperature Precipitation Wind Pressure Humidity
    00:00 +2°C° 0 mm 1 mps 630 mmHg 89%
    01:00 +2°C° 0 mm 1 mps 630 mmHg 89%
    02:00 +1°C° 0 mm 1 mps 630 mmHg 89%
    03:00 +1°C° 0 mm 1 mps 630 mmHg 89%
    04:00 +1°C° 0 mm 1 mps 630 mmHg 88%
    05:00 +1°C° 0 mm 1 mps 631 mmHg 87%
    06:00 +1°C° 0 mm 1 mps 631 mmHg 87%
    07:00 +2°C° 0 mm 1 mps 632 mmHg 83%
    08:00 +3°C° 0 mm 1 mps 632 mmHg 80%
    09:00 +4°C° 0 mm 1 mps 633 mmHg 77%
    10:00 +5°C° 0 mm 1 mps 633 mmHg 74%
    11:00 +4°C° 0 mm 2 mps 633 mmHg 72%
    12:00 +5°C° 0 mm 2 mps 633 mmHg 70%
    13:00 +5°C° 0.1 mm 2 mps 633 mmHg 71%
    14:00 +5°C° 0.1 mm 2 mps 633 mmHg 72%
    15:00 +5°C° 0.1 mm 2 mps 633 mmHg 72%
    16:00 +4°C° 0.1 mm 2 mps 633 mmHg 76%
    17:00 +4°C° 0.1 mm 2 mps 633 mmHg 81%
    18:00 +3°C° 0.1 mm 2 mps 633 mmHg 85%
    19:00 +4°C° 0.1 mm 1 mps 633 mmHg 86%
    20:00 +3°C° 0.1 mm 1 mps 634 mmHg 88%
    21:00 +3°C° 0.1 mm 1 mps 634 mmHg 89%
    22:00 +3°C° 0 mm 1 mps 634 mmHg 90%
    23:00 +2°C° 0 mm 1 mps 634 mmHg 90%

    1 March, Thursday

    Time Temperature Precipitation Wind Pressure Humidity
    00:00 +2°C° 0 mm 1 mps 634 mmHg 90%
    01:00 +2°C° 0 mm 1 mps 633 mmHg 90%
    02:00 +2°C° 0 mm 1 mps 633 mmHg 90%
    03:00 +2°C° 0 mm 1 mps 633 mmHg 90%
    04:00 +1°C° 0 mm 1 mps 633 mmHg 89%
    05:00 +1°C° 0 mm 1 mps 633 mmHg 88%
    06:00 +1°C° 0 mm 1 mps 633 mmHg 88%
    07:00 +2°C° 0 mm 1 mps 633 mmHg 83%
    08:00 +3°C° 0 mm 1 mps 634 mmHg 77%
    09:00 +4°C° 0 mm 1 mps 634 mmHg 72%
    10:00 +5°C° 0 mm 1 mps 634 mmHg 69%
    11:00 +5°C° 0 mm 2 mps 634 mmHg 65%
    12:00 +5°C° 0 mm 2 mps 634 mmHg 62%
    13:00 +6°C° 0 mm 2 mps 633 mmHg 61%
    14:00 +6°C° 0 mm 2 mps 633 mmHg 61%
    15:00 +6°C° 0 mm 2 mps 633 mmHg 61%
    16:00 +5°C° 0 mm 2 mps 633 mmHg 64%
    17:00 +4°C° 0 mm 2 mps 632 mmHg 68%
    18:00 +4°C° 0 mm 1 mps 632 mmHg 71%
    19:00 +4°C° 0 mm 1 mps 633 mmHg 71%
    20:00 +3°C° 0 mm 2 mps 633 mmHg 72%
    21:00 +2°C° 0 mm 2 mps 633 mmHg 72%
    22:00 +2°C° 0 mm 2 mps 633 mmHg 72%
    23:00 +2°C° 0 mm 2 mps 633 mmHg 72%
    Show more